| time (UTC) | temp C | wind direction | speed KPH | gust KPH | rain 1hr cm | rain 24hr cm | rain mn cm | humidity % | barometer mb |
| 20260502151504 | 18 | 90 | 1.6 | 0.0 | 0.00 | 0.00 | 0.00 | 77 | 1021.0 |
| 20260502123004 | 18 | 90 | 19.3 | 0.0 | 0.00 | 0.00 | 0.00 | 77 | 1022.0 |
| 20260502121504 | 18 | 90 | 19.3 | 0.0 | 0.00 | 0.00 | 0.00 | 77 | 1022.0 |
| 20260502114504 | 18 | 100 | 19.3 | 0.0 | 0.00 | 0.00 | 0.00 | 82 | 1022.0 |
| 20260502111504 | 18 | 90 | 14.5 | 0.0 | 0.00 | 0.00 | 0.00 | 72 | 1023.0 |
| 20260502110004 | 18 | 60 | 1.6 | 0.0 | 0.00 | 0.00 | 0.00 | 72 | 1023.0 |
| 20260502104504 | 18 | 60 | 1.6 | 0.0 | 0.00 | 0.00 | 0.00 | 72 | 1023.0 |
| 20260502101504 | 18 | 60 | 1.6 | 0.0 | 0.00 | 0.00 | 0.00 | 72 | 1023.0 |
| 20260502071504 | 17 | 70 | 1.6 | 0.0 | 0.00 | 0.00 | 0.00 | 88 | 1023.0 |
| 20260502070004 | 17 | 60 | 14.5 | 0.0 | 0.00 | 0.00 | 0.00 | 88 | 1023.0 |
| 20260502061504 | 17 | 60 | 14.5 | 0.0 | 0.00 | 0.00 | 0.00 | 88 | 1023.0 |
| 20260502054504 | 17 | 70 | 12.9 | 0.0 | 0.00 | 0.00 | 0.00 | 88 | 1023.0 |
| 20260502053005 | 17 | 70 | 11.3 | 0.0 | 0.00 | 0.00 | 0.00 | 88 | 1023.0 |
| 20260502050004 | 17 | 70 | 12.9 | 0.0 | 0.00 | 0.00 | 0.00 | 88 | 1023.0 |
| 20260502043005 | 17 | 70 | 1.6 | 0.0 | 0.00 | 0.00 | 0.00 | 88 | 1023.0 |
| 20260502040005 | 17 | 70 | 1.6 | 0.0 | 0.00 | 0.00 | 0.00 | 88 | 1023.0 |
| 20260502034504 | 17 | 70 | 1.6 | 0.0 | 0.00 | 0.00 | 0.00 | 88 | 1023.0 |
| 20260502033004 | 17 | 70 | 1.6 | 0.0 | 0.00 | 0.00 | 0.00 | 88 | 1023.0 |
| 20260502030004 | 17 | 60 | 14.5 | 0.0 | 0.00 | 0.00 | 0.00 | 88 | 1023.0 |
| 20260502024503 | 17 | 60 | 14.5 | 0.0 | 0.00 | 0.00 | 0.00 | 88 | 1023.0 |
| 20260502021504 | 17 | 60 | 1.6 | 0.0 | 0.00 | 0.00 | 0.00 | 93 | 1023.0 |
| 20260502020004 | 17 | 70 | 1.6 | 0.0 | 0.00 | 0.00 | 0.00 | 93 | 1023.0 |
| 20260502014504 | 17 | 70 | 1.6 | 0.0 | 0.00 | 0.00 | 0.00 | 93 | 1023.0 |
| 20260502011504 | 17 | 70 | 14.5 | 0.0 | 0.00 | 0.00 | 0.00 | 93 | 1024.0 |
| 20260502004504 | 17 | 70 | 12.9 | 0.0 | 0.00 | 0.00 | 0.00 | 88 | 1024.0 |
| 20260502003004 | 17 | 70 | 11.3 | 0.0 | 0.00 | 0.00 | 0.00 | 88 | 1024.0 |
| 20260502001504 | 17 | 70 | 11.3 | 0.0 | 0.00 | 0.00 | 0.00 | 88 | 1024.0 |
| 20260501234504 | 17 | 80 | 11.3 | 0.0 | 0.00 | 0.00 | 0.00 | 88 | 1024.0 |
| 20260501220005 | 17 | 70 | 1.6 | 0.0 | 0.00 | 0.00 | 0.00 | 88 | 1024.0 |
| 20260501214504 | 17 | 70 | 1.6 | 0.0 | 0.00 | 0.00 | 0.00 | 88 | 1024.0 |
| 20260501213004 | 17 | 70 | 1.6 | 0.0 | 0.00 | 0.00 | 0.00 | 88 | 1024.0 |
| 20260501204503 | 17 | 80 | 19.3 | 0.0 | 0.00 | 0.00 | 0.00 | 88 | 1024.0 |
| 20260501203005 | 17 | 90 | 14.5 | 0.0 | 0.00 | 0.00 | 0.00 | 88 | 1023.0 |
| 20260501201504 | 17 | 90 | 14.5 | 0.0 | 0.00 | 0.00 | 0.00 | 88 | 1023.0 |
| 20260501194504 | 17 | 90 | 14.5 | 0.0 | 0.00 | 0.00 | 0.00 | 88 | 1023.0 |
| 20260501193004 | 17 | 80 | 12.9 | 0.0 | 0.00 | 0.00 | 0.00 | 88 | 1023.0 |
| 20260501191503 | 17 | 80 | 12.9 | 0.0 | 0.00 | 0.00 | 0.00 | 88 | 1023.0 |
| 20260501184505 | 17 | 80 | 19.3 | 0.0 | 0.00 | 0.00 | 0.00 | 88 | 1023.0 |
| 20260501183004 | 17 | 70 | 20.9 | 0.0 | 0.00 | 0.00 | 0.00 | 88 | 1023.0 |
| 20260501180004 | 18 | 70 | 20.9 | 0.0 | 0.00 | 0.00 | 0.00 | 77 | 1022.0 |
| 20260501174503 | 18 | 70 | 20.9 | 0.0 | 0.00 | 0.00 | 0.00 | 77 | 1022.0 |
| 20260501171504 | 18 | 70 | 25.7 | 0.0 | 0.00 | 0.00 | 0.00 | 77 | 1022.0 |
| 20260501170004 | 18 | 70 | 25.7 | 0.0 | 0.00 | 0.00 | 0.00 | 77 | 1022.0 |
| 20260501164503 | 18 | 70 | 25.7 | 0.0 | 0.00 | 0.00 | 0.00 | 77 | 1022.0 |
| 20260501163004 | 18 | 70 | 25.7 | 0.0 | 0.00 | 0.00 | 0.00 | 72 | 1022.0 |
| 20260501161503 | 18 | 70 | 25.7 | 0.0 | 0.00 | 0.00 | 0.00 | 72 | 1022.0 |
| 20260501160005 | 20 | 80 | 27.4 | 0.0 | 0.00 | 0.00 | 0.00 | 68 | 1022.0 |